ROMMA est une association bénévole à but non lucratif. Votre soutien est indispensable : ADHERER à ROMMA ou FAIRE un DON

La Javie - (04, Alpes de Haute Provence)

Vallée de la Bléone (820 m)   Longitude: 06° 21' E   Latitude: 44° 10' N Station partenaire n°129
 

Détail journalier du     <<     >>

Température Precipitation Humidité Pression Vent Dir Rafale Dir. rafale Ensol.
Heure (°C) (mm) (%) (hPa) (km/h) (km/h) (min)
01:00 11.7094101100---0
02:00 11.3094101000---0
03:00 10.3097101000---0
04:00 10.5097101000---0
05:00 10.5097100800---0
06:00 11.40.289100800---0
07:00 11.9191101006---0
08:00 12.21.88410061---11---0
09:00 13.408110051---10---0
10:00 14.30861004011---0
11:00 17.3073100300---0
12:00 20.4051100305---0
13:00 21.303910035---26---0
14:00 20.204110034---29---0
15:00 21.604410038---40---0
16:00 21.204410037---27---0
17:00 20.0052100414---32---0
18:00 18.805010056---32---0
19:00 17.805610055---21---0
20:00 16.906310052---23---0
21:00 15.20691006011---0
22:00 13.9078100700---0
23:00 13.1085100800---0
minuit 12.0088100800---0

Graphique du 13-05-2020

 

Serveur OMMA